#timestamp,LO_Frequency,Hit,StdDev 
1554058815.8,286047002.6,N
1554058835.6,286047001.7,N
1554058855.5,286047003.1,N
1554058875.3,286047004.4,Y
1554058895.2,286047003.9,P
1554058915.9,286047002.8,N
1554058935.7,286047002.4,N
1554058955.6,286047002.2,N
1554058975.4,286047000.0,N
1554058995.2,286047002.6,N
1554059015.1,286046999.9,N
1554059016.0,286046999.9,N
1554059035.8,286047000.7,N
1554059055.7,286047000.3,N
1554059075.5,286047000.2,N
1554059095.3,286047002.8,N
1554059115.2,286046999.3,N
1554059135.0,286046998.7,N
1554059135.9,286046998.7,N
1554059155.8,286046999.1,N
1554059175.6,286046997.6,N
1554059195.4,286046997.8,N
1554059215.3,286046997.0,N
1554059235.1,286046996.9,N
1554059255.8,286046998.1,N
1554059275.7,286047000.2,N
1554059295.5,286047002.3,N
1554059315.4,286047001.9,N
1554059335.2,286046999.7,N
1554059355.0,286046998.8,N
1554059355.9,286046998.8,N
1554059375.8,286046999.0,N
1554059395.6,286046999.5,N
1554059415.4,286046999.0,N
1554059435.3,286046998.7,N
1554059455.1,286046999.1,N
1554059475.9,286046996.7,N
1554059495.7,286046997.3,N
1554059515.5,286046996.9,N
1554059535.4,286046999.4,N
1554059555.2,286046998.6,N
1554059575.0,286046998.4,N
1554059575.9,286046998.4,N
1554059595.8,286046998.4,N
1554059615.6,286047002.3,N
1554059635.5,286047002.7,N
1554059655.3,286047000.7,N
1554059675.1,286047000.2,N
1554059695.9,286047002.8,N
1554059715.7,286047002.3,N
1554059735.5,286047002.3,N
1554059755.4,286047001.5,N
1554059775.2,286047001.7,N
1554059795.1,286047004.1,N
1554059796.0,286047004.1,N
1554059815.8,286047001.9,N
1554059835.6,286047000.0,N
1554059855.5,286047001.2,N
1554059875.3,286047000.8,N
1554059895.1,286047000.9,N
1554059915.9,286047000.1,N
1554059935.7,286047000.9,N
1554059955.6,286047004.3,N
1554059975.4,286047004.4,N
1554059995.2,286047004.2,N
1554060015.1,286047004.1,N
1554060016.0,286047004.1,N
1554060035.8,286047003.4,N
1554060055.7,286047002.9,N
1554060075.5,286047004.8,N
1554060095.3,286047004.6,N
1554060115.2,286047003.6,N
1554060135.0,286047005.5,Y
1554060135.9,286047005.5,P
1554060155.7,286047002.1,N
1554060175.6,286047001.6,N
1554060195.4,286047002.4,N
1554060215.3,286047002.6,N
1554060235.1,286047001.8,N
1554060255.8,286047001.5,N
1554060275.7,286047003.3,N
1554060295.5,286047003.6,Y
1554060315.4,286047000.4,P
1554060335.2,286047000.7,N
1554060355.0,286047001.0,N
1554060355.9,286047001.0,N
1554060375.8,286046999.8,N
1554060395.6,286047000.2,N
1554060415.4,286047000.2,N
1554060435.3,286046998.2,N
1554060455.1,286046998.6,N
1554060475.9,286047002.7,N
1554060495.7,286047002.5,N
1554060515.5,286046999.8,N
1554060535.4,286047000.4,N
1554060555.2,286047000.3,N
1554060575.0,286046998.4,N
1554060575.9,286046998.4,N
1554060595.8,286046998.4,N
1554060615.6,286046998.5,N
1554060635.5,286046996.6,N
1554060655.3,286046996.8,N
1554060675.1,286046997.0,N
1554060695.9,286046997.0,N
1554060715.7,286047000.4,N
1554060735.5,286047000.5,N
1554060755.4,286047000.3,N
1554060775.2,286046998.2,N
1554060795.0,286046998.1,N
1554060796.0,286046998.1,N
1554060815.8,286046998.9,N
1554060835.6,286047000.8,N
1554060855.5,286047002.7,N
1554060875.3,286046999.7,N
1554060895.1,286047002.8,N
1554060915.9,286047001.1,N
1554060935.7,286046998.6,N
1554060955.5,286046999.0,N
1554060975.4,286046998.5,N
1554060995.2,286047000.8,N
1554061015.1,286046999.8,N
1554061016.0,286046999.8,N
1554061035.8,286047002.1,N
1554061055.6,286047000.9,N
1554061075.5,286047011.9,Y
1554061095.3,286046999.2,P
1554061115.2,286046999.3,P
1554061135.9,286047000.4,P
1554061155.7,286046999.9,N
1554061175.6,286047002.2,Y
1554061195.4,286047002.6,P
1554061215.3,286047002.6,N
1554061235.1,286046999.7,N
1554061255.8,286047001.7,N
1554061275.7,286047002.4,N
1554061295.5,286047002.8,N
1554061315.4,286047002.5,N
1554061335.2,286047003.8,Y
1554061355.0,286047001.2,P
1554061355.9,286047001.2,P
1554061375.8,286047000.7,N
1554061395.6,286047001.0,N
1554061415.5,286046999.0,Y
1554061435.3,286046997.3,P
1554061455.1,286046997.8,N
1554061475.9,286046996.9,N
1554061495.7,286046998.8,N
1554061515.6,286046999.3,N
1554061535.4,286046999.6,N
1554061555.2,286046999.5,N
1554061575.1,286046997.2,N
1554061576.0,286046997.2,N
1554061595.8,286046997.7,N
1554061615.7,286046997.2,N
1554061635.5,286046999.2,N
1554061655.3,286046998.3,N
1554061675.2,286046998.8,N
1554061695.9,286047000.8,N
1554061715.7,286046996.5,N
1554061735.6,286046997.6,N
1554061755.4,286046997.2,N
1554061775.3,286046995.8,Y
1554061795.1,286046997.1,P
1554061796.0,286046997.1,P
1554061815.8,286046998.3,P
1554061835.7,286046998.7,N
1554061855.5,286046999.8,N
1554061875.3,286047000.3,N
1554061895.2,286047002.4,N
1554061915.0,286047001.5,N
1554061915.9,286047001.5,N
1554061935.8,286047002.4,N
1554061955.6,286046999.7,N
1554061975.4,286047000.1,N
1554061995.3,286047001.5,N
1554062015.1,286047002.0,N
1554062035.8,286047000.0,N
1554062055.7,286047001.4,N
1554062075.5,286047002.0,N
1554062095.4,286047002.0,N
1554062115.2,286047004.1,N
1554062135.0,286047004.1,N
1554062135.9,286047004.1,N
1554062155.8,286047003.8,N
1554062175.6,286047004.0,N
1554062195.4,286047004.0,N
1554062215.3,286047001.5,N
1554062235.1,286047004.0,N
1554062255.9,286047002.0,N
1554062275.7,286047003.9,N
1554062295.5,286047003.8,N
1554062315.4,286047005.6,N
1554062335.2,286047002.4,N
1554062355.0,286047000.6,N
1554062355.9,286047000.6,N
1554062375.8,286047000.3,N
1554062395.6,286047002.7,N
